SVA455 LEPA-LFMN

Flight info

Callsign SVA455
Flight time 0h 50m
Altitude 41000
Route MEROS N853 LAPIT/N0497F300 N853 LUMAS DCT SOFFY DCT MRM DCT ABLAK
Aircraft B789/H-SDE1E2E3FGHIJ2J3J4J5M1RWXY/LB1D1

Departure

Time 2026-05-06 19:51
Airport Palma de Mallorca Airport (LEPA)

Arrival

Time 2026-05-06 20:41
Airport Nice-Côte d'Azur Airport (LFMN)
Time Latitude Longitude Altitude Speed Heading
2026-05-06 19:38 39.54983 2.73935 37 ft 0 kts 239°
2026-05-06 19:41 39.54986 2.73943 37 ft 2 kts 239°
2026-05-06 19:41 39.54995 2.73961 37 ft 2 kts 239°
2026-05-06 19:42 39.55003 2.73979 37 ft 2 kts 239°
2026-05-06 19:42 39.55011 2.73997 37 ft 2 kts 238°
2026-05-06 19:42 39.55020 2.74012 37 ft 2 kts 221°
2026-05-06 19:42 39.55029 2.74021 37 ft 2 kts 195°
2026-05-06 19:43 39.55040 2.74022 37 ft 2 kts 167°
2026-05-06 19:43 39.55054 2.74016 37 ft 2 kts 150°
2026-05-06 19:43 39.55065 2.74007 37 ft 1 kts 149°
2026-05-06 19:44 39.55065 2.74008 37 ft 0 kts 149°
2026-05-06 19:45 39.55063 2.74009 37 ft 2 kts 149°
2026-05-06 19:45 39.55003 2.74055 37 ft 18 kts 149°
2026-05-06 19:45 39.54924 2.74072 37 ft 9 kts 235°
2026-05-06 19:46 39.54860 2.73943 37 ft 25 kts 238°
2026-05-06 19:46 39.54754 2.73723 37 ft 24 kts 238°
2026-05-06 19:46 39.54684 2.73659 37 ft 8 kts 153°
2026-05-06 19:46 39.54607 2.73714 37 ft 17 kts 161°
2026-05-06 19:47 39.54464 2.73738 37 ft 22 kts 174°
2026-05-06 19:47 39.54416 2.73776 37 ft 8 kts 89°
2026-05-06 19:47 39.54424 2.73805 37 ft 0 kts 58°
2026-05-06 19:47 39.54425 2.73805 37 ft 0 kts 58°
2026-05-06 19:49 39.54425 2.73806 37 ft 0 kts 58°
2026-05-06 19:50 39.54427 2.73810 37 ft 4 kts 58°
2026-05-06 19:50 39.54580 2.74134 37 ft 85 kts 58°
2026-05-06 19:50 39.55017 2.75061 38 ft 154 kts 58°
2026-05-06 19:50 39.55644 2.76383 421 ft 179 kts 58°
2026-05-06 19:51 39.56328 2.77740 1320 ft 184 kts 55°
2026-05-06 19:51 39.57059 2.79118 2679 ft 189 kts 56°
2026-05-06 19:51 39.57824 2.80585 3746 ft 210 kts 56°
2026-05-06 19:51 39.58701 2.82302 4295 ft 250 kts 56°
2026-05-06 19:52 39.59680 2.84238 5261 ft 256 kts 54°
2026-05-06 19:52 39.60665 2.86176 6213 ft 258 kts 53°
2026-05-06 19:52 39.61799 2.88082 6889 ft 278 kts 48°
2026-05-06 19:52 39.63044 2.90065 8028 ft 286 kts 48°
2026-05-06 19:53 39.64306 2.92102 9219 ft 292 kts 49°
2026-05-06 19:53 39.65589 2.94193 10342 ft 299 kts 49°
2026-05-06 19:53 39.66895 2.96333 11174 ft 315 kts 49°
2026-05-06 19:53 39.68291 2.98630 11911 ft 331 kts 49°
2026-05-06 19:54 39.69756 3.01046 12592 ft 348 kts 49°
2026-05-06 19:54 39.71283 3.03568 13193 ft 364 kts 49°
2026-05-06 19:54 39.72884 3.06218 13721 ft 380 kts 50°
2026-05-06 19:54 39.74540 3.08960 14193 ft 398 kts 50°
2026-05-06 19:55 39.76288 3.11857 14770 ft 416 kts 50°
2026-05-06 19:55 39.78111 3.14884 15513 ft 430 kts 50°
2026-05-06 19:55 39.79980 3.17991 16380 ft 440 kts 50°
2026-05-06 19:55 39.81886 3.21163 17299 ft 448 kts 50°
2026-05-06 19:56 39.83812 3.24373 18231 ft 456 kts 50°
2026-05-06 19:56 39.85779 3.27653 19171 ft 462 kts 50°
2026-05-06 19:56 39.87778 3.30988 20111 ft 469 kts 50°
2026-05-06 19:56 39.89800 3.34365 21049 ft 474 kts 50°
2026-05-06 19:57 39.91815 3.37734 21951 ft 480 kts 50°
2026-05-06 19:57 39.93879 3.41189 22824 ft 486 kts 50°
2026-05-06 19:57 39.95970 3.44693 23655 ft 492 kts 50°
2026-05-06 19:57 39.98074 3.48224 24445 ft 498 kts 50°
2026-05-06 19:58 40.00215 3.51818 25213 ft 504 kts 50°
2026-05-06 19:58 40.02373 3.55447 25968 ft 509 kts 50°
2026-05-06 19:58 40.04559 3.59127 26714 ft 515 kts 50°
2026-05-06 19:58 40.06764 3.62843 27449 ft 520 kts 50°
2026-05-06 19:59 40.08987 3.66594 28171 ft 525 kts 50°
2026-05-06 19:59 40.11204 3.70341 28867 ft 530 kts 50°
2026-05-06 19:59 40.13474 3.74181 29554 ft 535 kts 51°
2026-05-06 19:59 40.15753 3.78040 30296 ft 537 kts 51°
2026-05-06 20:00 40.18064 3.81960 31085 ft 538 kts 51°
2026-05-06 20:00 40.20319 3.85790 31857 ft 538 kts 51°
2026-05-06 20:00 40.22607 3.89682 32634 ft 537 kts 51°
2026-05-06 20:00 40.24875 3.93542 33386 ft 535 kts 51°
2026-05-06 20:01 40.27150 3.97421 34124 ft 534 kts 51°
2026-05-06 20:01 40.29409 4.01276 34834 ft 532 kts 51°
2026-05-06 20:01 40.31654 4.05112 35523 ft 530 kts 51°
2026-05-06 20:01 40.33898 4.08950 36189 ft 528 kts 51°
2026-05-06 20:02 40.36128 4.12770 36798 ft 527 kts 51°
2026-05-06 20:02 40.38358 4.16594 37374 ft 527 kts 51°
2026-05-06 20:02 40.40580 4.20408 37922 ft 526 kts 51°
2026-05-06 20:02 40.42795 4.24215 38447 ft 526 kts 51°
2026-05-06 20:03 40.44992 4.27996 38959 ft 525 kts 51°
2026-05-06 20:03 40.47379 4.31613 39417 ft 523 kts 41°
2026-05-06 20:03 40.50214 4.34555 39889 ft 518 kts 30°
2026-05-06 20:03 40.53404 4.36713 40354 ft 513 kts 19°
2026-05-06 20:04 40.56810 4.38071 40750 ft 511 kts 10°
2026-05-06 20:04 40.60290 4.39002 40935 ft 511 kts
2026-05-06 20:04 40.67311 4.40584 40987 ft 513 kts
2026-05-06 20:05 40.74366 4.42253 41000 ft 514 kts
2026-05-06 20:05 40.81385 4.44013 41005 ft 514 kts
2026-05-06 20:06 40.88378 4.45802 40994 ft 514 kts
2026-05-06 20:06 40.95408 4.47536 41002 ft 513 kts
2026-05-06 20:07 41.02434 4.49237 41004 ft 514 kts
2026-05-06 20:07 41.09445 4.50936 40993 ft 513 kts
2026-05-06 20:08 41.16473 4.52646 41004 ft 514 kts
2026-05-06 20:08 41.23504 4.54362 41001 ft 514 kts
2026-05-06 20:09 41.30551 4.56085 40994 ft 513 kts
2026-05-06 20:09 41.37584 4.57809 41006 ft 514 kts
2026-05-06 20:10 41.44622 4.59537 40997 ft 514 kts
2026-05-06 20:10 41.51659 4.61270 40998 ft 513 kts
2026-05-06 20:11 41.58687 4.63003 41006 ft 514 kts
2026-05-06 20:11 41.65686 4.64734 40994 ft 514 kts
2026-05-06 20:12 41.72701 4.66598 41004 ft 515 kts 11°
2026-05-06 20:12 41.79641 4.69118 41000 ft 516 kts 14°
2026-05-06 20:13 41.86496 4.71820 40994 ft 516 kts 14°
2026-05-06 20:13 41.93390 4.74553 41007 ft 516 kts 14°
2026-05-06 20:14 42.00297 4.77281 40996 ft 516 kts 14°
2026-05-06 20:14 42.07195 4.80006 40998 ft 516 kts 14°
2026-05-06 20:15 42.14084 4.82731 41006 ft 516 kts 14°
2026-05-06 20:15 42.20985 4.85467 40994 ft 516 kts 14°
2026-05-06 20:16 42.27835 4.88189 41002 ft 516 kts 14°
2026-05-06 20:16 42.34627 4.90898 41002 ft 499 kts 14°
2026-05-06 20:17 42.41192 4.93519 40989 ft 490 kts 14°
2026-05-06 20:17 42.47776 4.96147 41010 ft 495 kts 14°
2026-05-06 20:18 42.54380 4.98794 40999 ft 494 kts 14°
2026-05-06 20:18 42.60991 5.01451 41001 ft 494 kts 14°
2026-05-06 20:19 42.67562 5.04097 41012 ft 498 kts 14°
2026-05-06 20:19 42.74338 5.06828 41001 ft 517 kts 14°
2026-05-06 20:20 42.81290 5.09644 40998 ft 518 kts 14°
2026-05-06 20:20 42.88186 5.12445 41010 ft 517 kts 14°
2026-05-06 20:21 42.95092 5.15263 40994 ft 518 kts 15°
2026-05-06 20:21 43.01497 5.19482 40564 ft 511 kts 31°
2026-05-06 20:22 43.04310 5.22430 39930 ft 512 kts 39°
2026-05-06 20:22 43.06803 5.25902 39243 ft 513 kts 47°
2026-05-06 20:22 43.08927 5.29844 38530 ft 514 kts 56°
2026-05-06 20:22 43.10628 5.34141 37726 ft 514 kts 64°
2026-05-06 20:23 43.11990 5.38728 36639 ft 512 kts 69°
2026-05-06 20:23 43.13168 5.43245 35524 ft 510 kts 70°
2026-05-06 20:23 43.14255 5.47883 34285 ft 509 kts 72°
2026-05-06 20:23 43.15226 5.52537 32960 ft 510 kts 75°
2026-05-06 20:24 43.15968 5.57316 31677 ft 514 kts 79°
2026-05-06 20:24 43.16575 5.62145 30555 ft 517 kts 80°
2026-05-06 20:24 43.17157 5.67043 29386 ft 521 kts 81°
2026-05-06 20:24 43.17730 5.71946 28298 ft 522 kts 81°
2026-05-06 20:25 43.18300 5.76851 27065 ft 516 kts 81°
2026-05-06 20:25 43.18854 5.81620 25767 ft 509 kts 81°
2026-05-06 20:25 43.19403 5.86362 24453 ft 501 kts 81°
2026-05-06 20:25 43.19943 5.91042 23145 ft 493 kts 81°
2026-05-06 20:26 43.20475 5.95656 21846 ft 485 kts 81°
2026-05-06 20:26 43.20995 6.00185 20589 ft 477 kts 81°
2026-05-06 20:26 43.21505 6.04627 19387 ft 468 kts 81°
2026-05-06 20:26 43.22006 6.09005 18214 ft 459 kts 81°
2026-05-06 20:27 43.22498 6.13310 17340 ft 453 kts 81°
2026-05-06 20:27 43.22982 6.17553 16168 ft 445 kts 81°
2026-05-06 20:27 43.23451 6.21667 15018 ft 438 kts 81°
2026-05-06 20:27 43.23918 6.25764 13828 ft 431 kts 81°
2026-05-06 20:28 43.24379 6.29821 12831 ft 428 kts 81°
2026-05-06 20:28 43.24835 6.33833 12068 ft 423 kts 81°
2026-05-06 20:28 43.25285 6.37795 11299 ft 417 kts 81°
2026-05-06 20:28 43.25729 6.41708 10542 ft 411 kts 81°
2026-05-06 20:29 43.26164 6.45553 9752 ft 406 kts 81°
2026-05-06 20:29 43.26595 6.49363 8929 ft 402 kts 81°
2026-05-06 20:29 43.27021 6.53128 8081 ft 398 kts 81°
2026-05-06 20:29 43.27437 6.56816 7235 ft 394 kts 81°
2026-05-06 20:30 43.27855 6.60517 6389 ft 389 kts 80°
2026-05-06 20:30 43.28615 6.67697 5043 ft 369 kts 81°
2026-05-06 20:30 43.29172 6.71060 4346 ft 354 kts 69°
2026-05-06 20:31 43.30423 6.73734 4029 ft 321 kts 44°
2026-05-06 20:31 43.32072 6.75541 4043 ft 287 kts 37°
2026-05-06 20:31 43.33354 6.77475 3971 ft 265 kts 58°
2026-05-06 20:31 43.34057 6.79701 4005 ft 242 kts 64°
2026-05-06 20:32 43.35109 6.81385 3969 ft 226 kts 37°
2026-05-06 20:32 43.36309 6.82693 4021 ft 215 kts 39°
2026-05-06 20:32 43.37382 6.84013 4015 ft 202 kts 42°
2026-05-06 20:32 43.38350 6.85304 4031 ft 190 kts 43°
2026-05-06 20:33 43.38972 6.86168 4023 ft 190 kts 44°
2026-05-06 20:33 43.39881 6.87477 4002 ft 189 kts 46°
2026-05-06 20:33 43.40778 6.88810 3990 ft 189 kts 46°
2026-05-06 20:33 43.41660 6.90143 3994 ft 188 kts 47°
2026-05-06 20:34 43.42534 6.91481 4004 ft 188 kts 47°
2026-05-06 20:34 43.43407 6.92824 4009 ft 188 kts 47°
2026-05-06 20:34 43.44280 6.94172 4003 ft 188 kts 47°
2026-05-06 20:34 43.45138 6.95498 3994 ft 188 kts 47°
2026-05-06 20:35 43.46045 6.96789 3984 ft 187 kts 41°
2026-05-06 20:35 43.47030 6.97940 4001 ft 183 kts 39°
2026-05-06 20:35 43.47972 6.99029 3995 ft 169 kts 39°
2026-05-06 20:35 43.48837 7.00036 4000 ft 157 kts 39°
2026-05-06 20:36 43.49648 7.00988 4011 ft 153 kts 39°
2026-05-06 20:36 43.50445 7.01993 3884 ft 153 kts 41°
2026-05-06 20:36 43.51216 7.02976 3668 ft 152 kts 42°
2026-05-06 20:36 43.51992 7.03967 3439 ft 151 kts 42°
2026-05-06 20:37 43.52755 7.04944 3223 ft 149 kts 43°
2026-05-06 20:37 43.53513 7.05915 3024 ft 149 kts 43°
2026-05-06 20:37 43.54271 7.06889 2828 ft 149 kts 43°
2026-05-06 20:37 43.55025 7.07857 2631 ft 148 kts 43°
2026-05-06 20:38 43.55782 7.08829 2431 ft 148 kts 43°
2026-05-06 20:38 43.56538 7.09798 2232 ft 148 kts 43°
2026-05-06 20:38 43.57291 7.10765 2033 ft 147 kts 43°
2026-05-06 20:38 43.58040 7.11726 1837 ft 147 kts 43°
2026-05-06 20:39 43.58788 7.12686 1641 ft 147 kts 43°
2026-05-06 20:39 43.59525 7.13633 1448 ft 146 kts 43°
2026-05-06 20:39 43.60267 7.14585 1254 ft 146 kts 43°
2026-05-06 20:39 43.61009 7.15538 1059 ft 145 kts 43°
2026-05-06 20:40 43.61749 7.16489 866 ft 145 kts 43°
2026-05-06 20:40 43.62480 7.17429 674 ft 145 kts 43°
2026-05-06 20:40 43.63226 7.18382 477 ft 144 kts 42°
2026-05-06 20:40 43.63969 7.19315 261 ft 144 kts 43°
2026-05-06 20:41 43.64675 7.20257 102 ft 143 kts 44°
2026-05-06 20:41 43.65369 7.21206 37 ft 131 kts 45°
2026-05-06 20:41 43.65878 7.21910 26 ft 61 kts 44°
2026-05-06 20:41 43.66022 7.22060 25 ft 17 kts 24°
2026-05-06 20:42 43.66159 7.22128 25 ft 22 kts 14°
2026-05-06 20:42 43.66306 7.22180 25 ft 21 kts 15°
2026-05-06 20:42 43.66444 7.22174 25 ft 20 kts 322°
2026-05-06 20:42 43.66536 7.22053 25 ft 15 kts 315°
2026-05-06 20:43 43.66541 7.21953 25 ft 12 kts 228°
2026-05-06 20:43 43.66460 7.21841 25 ft 21 kts 225°
2026-05-06 20:43 43.66336 7.21671 25 ft 28 kts 225°
2026-05-06 20:43 43.66204 7.21490 25 ft 25 kts 225°
2026-05-06 20:44 43.66075 7.21313 25 ft 28 kts 225°
2026-05-06 20:44 43.65943 7.21131 25 ft 26 kts 225°
2026-05-06 20:44 43.65836 7.20984 25 ft 20 kts 224°
2026-05-06 20:44 43.65792 7.20894 25 ft 8 kts 291°
2026-05-06 20:45 43.65855 7.20853 25 ft 10 kts 330°
2026-05-06 20:45 43.65855 7.20775 25 ft 12 kts 237°
2026-05-06 20:45 43.65790 7.20675 25 ft 6 kts 226°
2026-05-06 20:45 43.65786 7.20631 25 ft 4 kts 315°
2026-05-06 20:46 43.65824 7.20603 25 ft 10 kts 332°
2026-05-06 20:46 43.65835 7.20595 25 ft 0 kts 332°
2026-05-06 20:47 43.66001 7.22047 25 ft 14 kts 25°
2026-05-06 20:48 43.64699 7.20289 98 ft 143 kts 44°
2026-05-06 20:48 43.65387 7.21231 35 ft 130 kts 45°
2026-05-06 20:48 43.65791 7.21790 26 ft 85 kts 45°